CPT4218 PHNL-PHJH

Flight info

Callsign CPT4218
Flight time 0h 27m
Altitude 5000
Route MKK5 MKK
Aircraft C208/L-VGD/C

Departure

Time 2026-04-21 14:01
Airport Daniel K. Inouye International Airport (PHNL)

Arrival

Time 2026-04-21 14:29
Airport Kapalua Airport (PHJH)
Time Latitude Longitude Altitude Speed Heading
2026-04-21 13:59 21.31746 -157.91915 18 ft 0 kts 226°
2026-04-21 13:59 21.31711 -157.91964 18 ft 30 kts 233°
2026-04-21 13:59 21.31555 -157.92180 18 ft 41 kts 233°
2026-04-21 14:00 21.31375 -157.92432 18 ft 44 kts 230°
2026-04-21 14:00 21.31282 -157.92618 18 ft 14 kts 319°
2026-04-21 14:00 21.31410 -157.92691 18 ft 14 kts 19°
2026-04-21 14:00 21.31538 -157.92507 18 ft 67 kts 52°
2026-04-21 14:01 21.31958 -157.91929 134 ft 114 kts 56°
2026-04-21 14:01 21.32245 -157.91192 514 ft 113 kts 90°
2026-04-21 14:01 21.31885 -157.90430 818 ft 121 kts 128°
2026-04-21 14:01 21.31437 -157.89609 1119 ft 133 kts 115°
2026-04-21 14:02 21.31100 -157.88666 1398 ft 141 kts 110°
2026-04-21 14:02 21.30805 -157.87645 1666 ft 146 kts 108°
2026-04-21 14:02 21.30525 -157.86572 1924 ft 151 kts 107°
2026-04-21 14:03 21.29975 -157.84345 2429 ft 157 kts 106°
2026-04-21 14:03 21.29703 -157.83229 2685 ft 157 kts 105°
2026-04-21 14:03 21.29429 -157.82078 2942 ft 159 kts 105°
2026-04-21 14:03 21.29155 -157.80927 3180 ft 159 kts 105°
2026-04-21 14:04 21.28878 -157.79762 3440 ft 159 kts 105°
2026-04-21 14:04 21.28609 -157.78623 3686 ft 159 kts 105°
2026-04-21 14:04 21.28337 -157.77464 3940 ft 160 kts 105°
2026-04-21 14:04 21.28063 -157.76300 4188 ft 161 kts 105°
2026-04-21 14:05 21.27788 -157.75134 4435 ft 161 kts 105°
2026-04-21 14:05 21.27513 -157.73978 4678 ft 162 kts 105°
2026-04-21 14:05 21.27231 -157.72795 4876 ft 166 kts 105°
2026-04-21 14:05 21.26942 -157.71581 4988 ft 171 kts 105°
2026-04-21 14:06 21.26641 -157.70318 5018 ft 178 kts 105°
2026-04-21 14:06 21.26331 -157.69019 5022 ft 182 kts 105°
2026-04-21 14:06 21.26014 -157.67692 5021 ft 185 kts 105°
2026-04-21 14:06 21.25711 -157.66420 5020 ft 186 kts 105°
2026-04-21 14:07 21.25528 -157.65651 5019 ft 187 kts 105°
2026-04-21 14:07 21.25381 -157.65033 5018 ft 187 kts 105°
2026-04-21 14:07 21.25060 -157.63683 5018 ft 187 kts 105°
2026-04-21 14:08 21.24738 -157.62330 5017 ft 187 kts 105°
2026-04-21 14:08 21.24414 -157.60972 5016 ft 188 kts 105°
2026-04-21 14:08 21.24092 -157.59619 5016 ft 188 kts 105°
2026-04-21 14:08 21.23769 -157.58264 5015 ft 188 kts 105°
2026-04-21 14:09 21.23449 -157.56925 5015 ft 188 kts 105°
2026-04-21 14:09 21.23126 -157.55570 5014 ft 188 kts 105°
2026-04-21 14:09 21.22803 -157.54215 5014 ft 188 kts 105°
2026-04-21 14:09 21.22479 -157.52861 5013 ft 188 kts 105°
2026-04-21 14:10 21.22154 -157.51500 5013 ft 188 kts 105°
2026-04-21 14:10 21.21831 -157.50146 5012 ft 188 kts 105°
2026-04-21 14:10 21.21506 -157.48789 5011 ft 188 kts 105°
2026-04-21 14:10 21.21186 -157.47450 5012 ft 188 kts 105°
2026-04-21 14:11 21.20862 -157.46093 5010 ft 188 kts 105°
2026-04-21 14:11 21.20665 -157.45267 5010 ft 188 kts 105°
2026-04-21 14:11 21.20341 -157.43914 5009 ft 188 kts 105°
2026-04-21 14:11 21.20019 -157.42573 5008 ft 188 kts 105°
2026-04-21 14:12 21.19694 -157.41216 5007 ft 188 kts 105°
2026-04-21 14:12 21.19370 -157.39862 5007 ft 188 kts 105°
2026-04-21 14:12 21.19044 -157.38505 5006 ft 188 kts 105°
2026-04-21 14:12 21.18723 -157.37166 5005 ft 188 kts 105°
2026-04-21 14:13 21.18394 -157.35793 5005 ft 188 kts 105°
2026-04-21 14:13 21.18072 -157.34453 5004 ft 188 kts 105°
2026-04-21 14:13 21.17746 -157.33097 5004 ft 188 kts 105°
2026-04-21 14:13 21.17421 -157.31743 5003 ft 188 kts 105°
2026-04-21 14:14 21.17095 -157.30387 5003 ft 188 kts 105°
2026-04-21 14:14 21.16771 -157.29038 5002 ft 188 kts 105°
2026-04-21 14:14 21.16444 -157.27677 5002 ft 188 kts 105°
2026-04-21 14:14 21.16120 -157.26328 5000 ft 188 kts 105°
2026-04-21 14:15 21.15797 -157.24987 4992 ft 188 kts 105°
2026-04-21 14:15 21.15471 -157.23639 4998 ft 187 kts 105°
2026-04-21 14:15 21.15144 -157.22279 5000 ft 188 kts 105°
2026-04-21 14:15 21.14958 -157.21504 5003 ft 188 kts 105°
2026-04-21 14:16 21.14634 -157.20153 5003 ft 188 kts 105°
2026-04-21 14:16 21.14311 -157.18812 5004 ft 188 kts 105°
2026-04-21 14:16 21.13953 -157.17464 5009 ft 187 kts 108°
2026-04-21 14:16 21.13537 -157.16142 5006 ft 188 kts 109°
2026-04-21 14:17 21.13098 -157.14825 4998 ft 188 kts 110°
2026-04-21 14:17 21.12652 -157.13512 5017 ft 187 kts 110°
2026-04-21 14:17 21.12201 -157.12206 5003 ft 188 kts 111°
2026-04-21 14:17 21.11743 -157.10896 5002 ft 188 kts 111°
2026-04-21 14:18 21.11283 -157.09602 4991 ft 188 kts 111°
2026-04-21 14:18 21.10818 -157.08286 4960 ft 191 kts 111°
2026-04-21 14:18 21.10353 -157.06975 5013 ft 187 kts 111°
2026-04-21 14:18 21.09894 -157.05668 5005 ft 188 kts 111°
2026-04-21 14:19 21.09434 -157.04360 5002 ft 188 kts 111°
2026-04-21 14:19 21.09200 -157.03693 5001 ft 188 kts 111°
2026-04-21 14:19 21.08744 -157.02383 5008 ft 187 kts 111°
2026-04-21 14:19 21.08284 -157.01077 5007 ft 187 kts 111°
2026-04-21 14:20 21.07827 -156.99789 5006 ft 187 kts 111°
2026-04-21 14:20 21.07363 -156.98486 5007 ft 188 kts 111°
2026-04-21 14:20 21.07118 -156.97794 5009 ft 187 kts 111°
2026-04-21 14:20 21.06653 -156.96483 4960 ft 190 kts 111°
2026-04-21 14:21 21.06049 -156.95177 4706 ft 200 kts 123°
2026-04-21 14:21 21.05212 -156.93978 4472 ft 204 kts 128°
2026-04-21 14:21 21.04319 -156.92810 4234 ft 206 kts 129°
2026-04-21 14:21 21.03403 -156.91632 3993 ft 207 kts 129°
2026-04-21 14:22 21.02482 -156.90452 3751 ft 207 kts 129°
2026-04-21 14:22 21.01557 -156.89269 3509 ft 206 kts 129°
2026-04-21 14:22 21.00639 -156.88095 3266 ft 205 kts 129°
2026-04-21 14:22 20.99722 -156.86924 3024 ft 205 kts 129°
2026-04-21 14:23 20.98809 -156.85758 2781 ft 204 kts 129°
2026-04-21 14:23 20.97896 -156.84590 2538 ft 204 kts 129°
2026-04-21 14:23 20.96985 -156.83427 2295 ft 204 kts 129°
2026-04-21 14:23 20.96076 -156.82270 2140 ft 201 kts 129°
2026-04-21 14:24 20.95186 -156.81144 2052 ft 196 kts 129°
2026-04-21 14:24 20.94328 -156.80059 2028 ft 192 kts 129°
2026-04-21 14:24 20.93463 -156.78963 2021 ft 186 kts 129°
2026-04-21 14:24 20.92657 -156.77947 1995 ft 172 kts 129°
2026-04-21 14:25 20.91886 -156.76985 1826 ft 169 kts 129°
2026-04-21 14:25 20.91154 -156.76028 1580 ft 168 kts 125°
2026-04-21 14:25 20.90544 -156.74966 1345 ft 167 kts 117°
2026-04-21 14:25 20.90077 -156.73836 1153 ft 164 kts 111°
2026-04-21 14:26 20.89661 -156.72734 1030 ft 158 kts 110°
2026-04-21 14:26 20.89309 -156.71653 967 ft 151 kts 98°
2026-04-21 14:26 20.89594 -156.70684 1039 ft 128 kts 50°
2026-04-21 14:26 20.90365 -156.70236 997 ft 125 kts 22°
2026-04-21 14:27 20.91222 -156.70025 915 ft 126 kts 11°
2026-04-21 14:27 20.92067 -156.69939 916 ft 122 kts
2026-04-21 14:27 20.92888 -156.69800 914 ft 117 kts 17°
2026-04-21 14:27 20.93588 -156.69330 787 ft 122 kts 42°
2026-04-21 14:28 20.94202 -156.68679 673 ft 126 kts 42°
2026-04-21 14:28 20.94874 -156.68121 537 ft 118 kts 34°
2026-04-21 14:28 20.95564 -156.67721 364 ft 109 kts 26°
2026-04-21 14:28 20.96191 -156.67362 261 ft 96 kts 28°
2026-04-21 14:29 20.96596 -156.67132 261 ft 33 kts 24°
2026-04-21 14:29 20.96662 -156.67120 261 ft 9 kts 196°
2026-04-21 14:29 20.96496 -156.67200 261 ft 39 kts 207°
2026-04-21 14:29 20.96291 -156.67321 261 ft 7 kts 239°
2026-04-21 14:30 20.96271 -156.67392 261 ft 18 kts 263°
2026-04-21 14:30 20.96256 -156.67471 261 ft 0 kts 247°
2026-04-21 14:31 20.96255 -156.67471 261 ft 0 kts 247°
2026-04-21 14:31 20.96255 -156.67472 261 ft 0 kts 246°
2026-04-21 14:32 20.96255 -156.67473 261 ft 0 kts 246°
2026-04-21 14:34 20.96254 -156.67474 261 ft 0 kts 246°